647  
ASUS41 KOKX 230214  
RWROKX  
 
REGIONAL WEATHER ROUNDUP  
NATIONAL WEATHER SERVICE NEW YORK NY  
1000 PM EDT THU AUG 22 2019  
 
NOTE: "FAIR" INDICATES FEW OR NO CLOUDS BELOW 12,000 FEET WITH NO  
SIGNIFICANT WEATHER AND/OR S TO VISIBILITY
.  
 
NYZ071-072-176-178-NJZ106-104-230300-  
NEW YORK CITY METRO AREA  
 
CITY SKY/WX TMP DP RH WIND PRES REMARKS
 
CENTRAL PARK HVY RAIN 71 70 96 VRB7 29.96R VSB 1  
BRONX LEHMAN C N/A 72 72 100 W6 N/A  
LAGUARDIA ARPT CLOUDY 75 68 78 NW5 29.91S  
QUEENS COLLEGE N/A 72 70 94 N5 N/A  
KENNEDY INTL CLOUDY 72 71 97 NE3 29.91F  
BREEZY POINT N/A 72 N/A N/A N3 N/A  
BROOKLYN COLL N/A 73 70 88 NW9 N/A  
STATEN ISLAND N/A 72 72 100 N5 N/A  
NEWARK/LIBERTY RAIN 73 71 93 NW8 29.94R FOG  
TETERBORO HVY RAIN 72 69 90 NW10 29.93R  

 
 
NYZ177-179-078>081-230300-  
LONG ISLAND NEW YORK  
 
CITY SKY/WX TMP DP RH WIND PRES REMARKS
 
JONES BEACH N/A 70 N/A N/A N9 N/A  
WANTAGH N/A 72 70 94 S2 N/A  
HEMPSTEAD N/A 72 70 94 NE6 29.93F  
MATINECOCK PT N/A 73 N/A N/A SW3 N/A  
FARMINGDALE TSTM 72 68 87 VRB5 29.90R  
MACARTHUR/ISP TSTM 71 68 90 W32G47 29.92R FOG  
STONY BROOK N/A 75 73 94 NW5 N/A  
SHIRLEY LGT RAIN 79 71 76 SW8 29.90R  
MT SINAI HARB N/A N/A N/A N/A NW6 N/A  
WESTHAMPTON FAIR 77 73 87 SW6 29.91R  
EAST HAMPTON MOCLDY 76 71 83 SW5 29.89R  
SOUTHOLD N/A 75 72 88 SW1 N/A  
MONTAUK N/A 78 70 76 SW5 29.89S  

 
 
NYZ052-065-067-230300-  
HUDSON VALLEY  
 
CITY SKY/WX TMP DP RH WIND PRES REMARKS
 
WHITE PLAINS MOCLDY 73 71 93 CALM 29.92S  
LARCHMONT HARB N/A 73 N/A N/A SW3 N/A  
CROTON ON HUDS N/A 73 N/A N/A MISG N/A  
SOMERS N/A 72 72 100 S1 N/A  
BREWSTER N/A 70 70 100 S1 N/A  
NEWBURGH MOCLDY 75 75 100 CALM 29.91S  
MONTGOMERY MOCLDY 71 71 100 CALM 29.90S  
OTISVILLE N/A 70 70 100 S1 N/A  
WARWICK N/A 72 72 100 W2 N/A  
SUFFERN N/A 70 70 100 S3 N/A  
POUGHKEEPSIE CLOUDY 74 72 93 SE3 29.88S  
ALBANY FAIR 70 53 54 NW10 29.93R  

 
 
NJZ001-105-106-008-010-013-015-019>022-104-230300-  
NEW JERSEY  
 
CITY SKY/WX TMP DP RH WIND PRES REMARKS
 
NEWARK/LIBERTY RAIN 73 71 93 NW8 29.94R FOG  
TETERBORO HVY RAIN 72 69 90 NW10 29.93R  
CALDWELL RAIN 73 72 96 S5 29.93R FOG  
SOMERVILLE RAIN 73 71 93 CALM 29.89F FOG  
LINDEN RAIN 73 70 91 CALM 29.93R  
PERTH AMBOY N/A 72 N/A N/A N8 N/A  
SUSSEX CLOUDY 73 71 93 SW6 29.94R  
ANDOVER N/A 71 70 96 CALM 29.94R  
TRENTON MOCLDY 73 71 93 N5 29.92R  
MILLVILLE FAIR 80 71 74 VRB3 29.92R  
ATLANTIC CITY FAIR 80 72 76 SW6 29.91R  
WRIGHTSTOWN CLOUDY 79 72 78 SW6 29.88S  
TOMS RIVER FAIR 80 79 96 CALM 29.90S  
BELMAR FAIR 82 72 71 S7 29.91R  

 
 
PAZ047>061-062-071-230300-  
EASTERN PENNSYLVANIA  
 
CITY SKY/WX TMP DP RH WIND PRES REMARKS
 
PHILADELPHIA LGT RAIN 83 71 67 SW10 29.91R  
ALLENTOWN LGT RAIN 73 69 87 SE5 29.93S  
SCRANTON CLOUDY 71 68 90 NW6 29.96R  

 
 
CTZ002-004>006-009-010-012-RIZ004-006-007-MAZ004-011-015-230300-  
SOUTHERN NEW ENGLAND  
 
IN CT  
 
CITY SKY/WX TMP DP RH WIND PRES REMARKS
 
BRADLEY INTL CLOUDY 74 70 87 NW5 29.89R  
HARTFORD CLOUDY 75 72 90 S5 29.88R  
DANBURY LGT RAIN 73 71 93 CALM 29.92S  
WTRBURY/OXFORD LGT RAIN 72 72 100 S6 29.94R  
NORWALK HARBOR N/A 73 N/A N/A N7 N/A  
BRIDGEPORT LGT RAIN 74 69 85 CALM 29.90R  
MERIDEN LGT RAIN 73 70 90 SW3 29.90R  
NEW HAVEN LGT RAIN 79 73 82 SW5 29.91R  
CHESTER FAIR 73 72 94 W5 29.90S  
GROTON FAIR 78 70 76 CALM 29.87R  
WILLIMANTIC CLOUDY 74 71 91 CALM 29.90R  
 
IN RI  
 
CITY SKY/WX TMP DP RH WIND PRES REMARKS
 
PROVIDENCE CLOUDY 77 72 84 SW5 29.86F  
BLOCK ISLAND MOCLDY N/A N/A N/A W10 29.89S  
WESTERLY CLOUDY 79 73 82 CALM 29.88R  
 
IN MA  
 
CITY SKY/WX TMP DP RH WIND PRES REMARKS
 
BOSTON FAIR 83 61 47 W8 29.85R  
WORCESTER FAIR 72 62 71 W14 29.91R  
WESTFIELD CLOUDY 75 56 51 NW12 29.89R  
PROVINCETOWN FAIR 73 72 96 SW8 29.85S  
NANTUCKET FAIR 73 72 96 SW10 29.87S  

 
 
ANZ330-335-338-340-345-350-353-355-230300-  
COASTAL MARINE OBSERVATIONS  
 
 
STATION/POSITION TIME SKY/WX TEMP WIND PRES VSBY WAVE
 
AIR SEA DIR/SP/G HT/PER  
(UTC) (F) (DEG/KT/KT) (MB) (MI) (FT/S)  
NY HARB ENTRANCE 0150 74 75 360/ 14/ 17 1012.4 4/ 8  
20 S FIRE ISLAND 0150 77 75 230/ 14/ 16 1012.3 5/ 8  
GREAT SOUTH BAY 0130 80 81 250/ 10/ 16 N/A  
23 SSW MONTAUK P 0150 77 270/ 10/ 12 1013.5 4/ 8  
15 E BARNEGAT LI 0130 77 N/A 4/ 7  
HUDSON CANYON 0150 80 80 220/ 17/ 19 1013.3 5/ 7  
KINGS POINT 0124 71 76 60/ 5/ 10 1013.5  
EXECUTION ROCKS NOT AVBL  
WESTERN LI SOUND NOT AVBL  
CENTRAL LI SOUND NOT AVBL  
ROBBINS REEF 0124 20/ 7/ 10 1012.6  

 
 
>>>>>>>>>>>>>>>>>>>>>>>>>>>> KEY <<<<<<<<<<<<<<<<<<<<<<<<<<<  
> <  
> SKY/WX - SKY CONDITION/PRESENT WEATHER <  
> TMP - TEMPERATURE IN FAHRENHEIT <  
> DP - DEW POINT IN FAHRENHEIT <  
> RH - RELATIVE HUMIDITY IN PERCENT <  
> WIND - DIRECTION (FROM) AND SPEED IN MPH <  
> PRES - MEAN SEA LEVEL PRESSURE (INCHES OF HG) <  
> WCI - WIND CHILL INDEX <  
> VSB - VISIBILITY IN MILES <  
> HX - HEAT INDEX <  
> TC - TEMPERATURE IN CELSIUS <  
> VRB - VARIABLE WIND DIRECTION <  
> <  
>>>>>>>>>>>>>>>>>>>>>>>>>>>> KEY <<<<<<<<<<<<<<<<<<<<<<<<<<<  
 
 
CLICK HERE TO GO TO PREVIOUS BULLETINS.

The Nexlab NY Page
The Nexlab NJ Page
The Nexlab CT Page Main Text Page